Skip Page Navigation
NASA JPL Caltech
NASA Logo - Jet Propulsion Laboratory + View the NASA Portal
+ Near-Earth Object (NEO) Program
Search JPL
JPL Home Earth Solar System Stars & Galaxies Technology
JPL Solar System Dynamics
BODIES ORBITS EPHEMERIDES TOOLS PHYSICAL DATA DISCOVERY FAQ SITE MAP
JPL Small-Body Database Browser
Search: [ help ]  
292780 (2006 UH215)
Classification: Main-belt Asteroid          SPK-ID: 2292780
Ephemeris | Orbit Diagram | Orbital Elements | Physical Parameters | Discovery Circumstances ]

[ hide orbit diagram ]
Orbit Diagram
Note: Make sure you have Java enabled on your browser to see the applet. This applet is provided as a 3D orbit visualization tool. The applet was implemented using 2-body methods, and hence should not be used for determining accurate long-term trajectories (over several years or decades) or planetary encounter circumstances. For accurate long-term ephemerides, please instead use our Horizons system.
Orbit Viewer

Additional Notes: the orbits shown in the applet are color coded. The planets are white lines, and the asteroid/comet is a blue line. The bright white line indicates the portion of the orbit that is above the ecliptic plane, and the darker portion is below the ecliptic plane. Likewise for the asteroid/comet orbit, the light blue indicates the portion above the ecliptic plane, and the dark blue the portion below the ecliptic plane.

Orbit Viewer applet originally written and kindly provided by Osamu Ajiki (AstroArts), and further modified by Ron Baalke (JPL).


Orbital Elements at Epoch 2456400.5 (2013-Apr-18.0) TDB
Reference: MPO224498 (heliocentric ecliptic J2000)
 Element Value Uncertainty (1-sigma)   Units 
e 0.1320130 n/a  
a 2.6062121 n/a AU
q 2.2621582 n/a AU
i 2.76123 n/a deg
node 15.01463 n/a deg
peri 34.05452 n/a deg
M 182.20324 n/a deg
tp 2457159.4871068
(2015-May-16.98710680)
n/a JED
period 1536.7848012
4.21
n/a
n/a
d
yr
n 0.23425531 n/a deg/d
Q 2.9502660 n/a AU
  Orbit Determination Parameters
   # obs. used (total)      105  
   first obs. used      2002-??-??  
   last obs. used      2012-02-22  
   # oppositions      6  
   planetary ephem.      DE403  
   condition code      1  
   fit RMS      0.45  
   data source      MPC:mpu  
   producer      MPCLINUX  

Additional Information
 T_jup = 3.398 

Ephemeris | Orbit Diagram | Orbital Elements | Physical Parameters | Discovery Circumstances ]

Physical Parameter Table
Parameter Symbol Value Units Sigma Reference Notes
absolute magnitude H 17.5 mag n/a MPO224498  

292780 (2006 UH215)          Discovered 2006-Oct-27 by Molnar, L. A. at Calvin-Rehoboth (G98)
Reference: 20110912/Numbers.arcLast Updated: 2011-09-14

Alternate Designations
 2006 UH215 = 2004 FJ79 
Ephemeris | Orbit Diagram | Orbital Elements | Physical Parameters | Discovery Circumstances ]
ABOUT SSD CREDITS/AWARDS PRIVACY/COPYRIGHT GLOSSARY LINKS
FirstGov 2013-May-23 04:02 UT
(server date/time)  
NASA Home Page
Site Manager:   Donald K. Yeomans
Webmaster  Alan B. Chamberlin